ASA1340 KSFO-KSEA

Flight info

Callsign ASA1340
Flight time 1h 40m
Altitude 34000
Route TRUKN2 DEDHD RBL LMT HAWKZ8
Aircraft B739/M-SDE3FGHIJ4J7P2RWYZ/LB1D1

Departure

Time 2026-05-04 19:36
Airport San Francisco International Airport (KSFO)

Arrival

Time 2026-05-04 21:17
Airport Seattle–Tacoma International Airport (KSEA)
Time Latitude Longitude Altitude Speed Heading
2026-05-04 19:04 37.61200 -122.38433 0 ft 0 kts 298°
2026-05-04 19:25 37.61199 -122.38433 21 ft 1 kts 298°
2026-05-04 19:25 37.61189 -122.38408 23 ft 2 kts 298°
2026-05-04 19:25 37.61176 -122.38386 23 ft 4 kts 337°
2026-05-04 19:25 37.61155 -122.38388 22 ft 4 kts 26°
2026-05-04 19:26 37.61132 -122.38403 21 ft 4 kts 27°
2026-05-04 19:26 37.61127 -122.38406 21 ft 0 kts 27°
2026-05-04 19:28 37.61128 -122.38405 21 ft 1 kts 27°
2026-05-04 19:28 37.61140 -122.38397 23 ft 3 kts 27°
2026-05-04 19:29 37.61176 -122.38373 25 ft 9 kts 27°
2026-05-04 19:29 37.61216 -122.38312 21 ft 10 kts 72°
2026-05-04 19:29 37.61249 -122.38241 21 ft 9 kts 36°
2026-05-04 19:29 37.61306 -122.38203 21 ft 10 kts 27°
2026-05-04 19:30 37.61380 -122.38154 21 ft 15 kts 27°
2026-05-04 19:30 37.61488 -122.38083 22 ft 19 kts 27°
2026-05-04 19:30 37.61603 -122.38008 22 ft 18 kts 29°
2026-05-04 19:30 37.61674 -122.37939 21 ft 12 kts 67°
2026-05-04 19:31 37.61671 -122.37837 21 ft 12 kts 97°
2026-05-04 19:31 37.61662 -122.37737 21 ft 11 kts 97°
2026-05-04 19:31 37.61652 -122.37641 21 ft 11 kts 97°
2026-05-04 19:31 37.61641 -122.37531 21 ft 14 kts 97°
2026-05-04 19:32 37.61627 -122.37387 21 ft 18 kts 97°
2026-05-04 19:32 37.61601 -122.37231 22 ft 18 kts 116°
2026-05-04 19:32 37.61544 -122.37093 22 ft 17 kts 117°
2026-05-04 19:32 37.61488 -122.36961 21 ft 17 kts 121°
2026-05-04 19:33 37.61414 -122.36850 21 ft 16 kts 133°
2026-05-04 19:33 37.61349 -122.36741 21 ft 16 kts 117°
2026-05-04 19:33 37.61299 -122.36623 22 ft 15 kts 118°
2026-05-04 19:33 37.61252 -122.36509 21 ft 14 kts 118°
2026-05-04 19:34 37.61206 -122.36401 21 ft 14 kts 118°
2026-05-04 19:34 37.61162 -122.36297 21 ft 13 kts 118°
2026-05-04 19:34 37.61120 -122.36198 22 ft 13 kts 118°
2026-05-04 19:34 37.61075 -122.36091 23 ft 15 kts 118°
2026-05-04 19:35 37.61053 -122.35974 21 ft 13 kts 77°
2026-05-04 19:35 37.61112 -122.35895 22 ft 13 kts 26°
2026-05-04 19:35 37.61192 -122.35898 21 ft 12 kts 313°
2026-05-04 19:35 37.61235 -122.35991 23 ft 14 kts 298°
2026-05-04 19:36 37.61380 -122.36335 23 ft 80 kts 298°
2026-05-04 19:36 37.61735 -122.37180 21 ft 138 kts 298°
2026-05-04 19:36 37.62251 -122.38413 183 ft 168 kts 297°
2026-05-04 19:36 37.62812 -122.39685 866 ft 169 kts 300°
2026-05-04 19:37 37.63727 -122.40643 1446 ft 179 kts 339°
2026-05-04 19:37 37.64972 -122.40591 2039 ft 186 kts 22°
2026-05-04 19:37 37.65938 -122.39492 2644 ft 193 kts 59°
2026-05-04 19:37 37.66474 -122.37919 3233 ft 200 kts 69°
2026-05-04 19:38 37.67012 -122.36184 3426 ft 225 kts 68°
2026-05-04 19:38 37.67621 -122.34276 3722 ft 241 kts 68°
2026-05-04 19:38 37.68283 -122.32225 3974 ft 263 kts 68°
2026-05-04 19:38 37.68984 -122.30056 4629 ft 269 kts 68°
2026-05-04 19:39 37.69681 -122.27899 5447 ft 269 kts 69°
2026-05-04 19:39 37.70390 -122.25703 6213 ft 272 kts 69°
2026-05-04 19:39 37.71140 -122.23485 6912 ft 276 kts 63°
2026-05-04 19:39 37.72437 -122.21710 7616 ft 280 kts 31°
2026-05-04 19:40 37.74290 -122.20952 8348 ft 283 kts
2026-05-04 19:40 37.76259 -122.20616 9032 ft 286 kts
2026-05-04 19:40 37.78216 -122.20317 9799 ft 286 kts
2026-05-04 19:40 37.80213 -122.20016 10414 ft 293 kts
2026-05-04 19:41 37.82315 -122.19692 10567 ft 315 kts
2026-05-04 19:41 37.84560 -122.19338 10727 ft 335 kts
2026-05-04 19:41 37.86917 -122.18963 11119 ft 347 kts
2026-05-04 19:41 37.89328 -122.18577 11815 ft 350 kts
2026-05-04 19:42 37.91738 -122.18187 12598 ft 351 kts
2026-05-04 19:42 37.94179 -122.17790 13168 ft 355 kts
2026-05-04 19:42 37.96617 -122.17393 13764 ft 359 kts
2026-05-04 19:42 37.99103 -122.16986 14330 ft 361 kts
2026-05-04 19:43 38.01609 -122.16576 14918 ft 362 kts
2026-05-04 19:43 38.04122 -122.16163 15486 ft 364 kts 10°
2026-05-04 19:43 38.06648 -122.15748 16027 ft 367 kts 10°
2026-05-04 19:43 38.09188 -122.15330 16569 ft 369 kts 10°
2026-05-04 19:44 38.11747 -122.14909 17100 ft 372 kts 11°
2026-05-04 19:44 38.14293 -122.14488 17624 ft 374 kts 11°
2026-05-04 19:44 38.16887 -122.14061 18143 ft 377 kts 11°
2026-05-04 19:44 38.19493 -122.13631 18644 ft 378 kts 11°
2026-05-04 19:45 38.22104 -122.13201 19158 ft 378 kts 11°
2026-05-04 19:45 38.24714 -122.12770 19680 ft 378 kts 11°
2026-05-04 19:45 38.27325 -122.12339 20178 ft 378 kts 11°
2026-05-04 19:45 38.29943 -122.11906 20666 ft 379 kts 11°
2026-05-04 19:46 38.32529 -122.11478 21135 ft 380 kts 11°
2026-05-04 19:46 38.35176 -122.11192 21582 ft 384 kts
2026-05-04 19:46 38.37868 -122.11265 22024 ft 388 kts
2026-05-04 19:46 38.40575 -122.11489 22469 ft 390 kts
2026-05-04 19:47 38.43289 -122.11756 22908 ft 392 kts 360°
2026-05-04 19:47 38.46013 -122.12018 23307 ft 394 kts
2026-05-04 19:47 38.48759 -122.12261 23691 ft 396 kts
2026-05-04 19:47 38.51521 -122.12485 23995 ft 399 kts
2026-05-04 19:48 38.54262 -122.12692 24276 ft 401 kts
2026-05-04 19:48 38.57063 -122.12894 24542 ft 404 kts
2026-05-04 19:48 38.59880 -122.13092 24799 ft 406 kts
2026-05-04 19:48 38.62711 -122.13288 25130 ft 408 kts
2026-05-04 19:49 38.65559 -122.13483 25420 ft 411 kts
2026-05-04 19:49 38.68420 -122.13678 25669 ft 414 kts
2026-05-04 19:49 38.71302 -122.13875 25952 ft 416 kts
2026-05-04 19:49 38.74208 -122.14074 26226 ft 418 kts
2026-05-04 19:50 38.77124 -122.14275 26502 ft 420 kts
2026-05-04 19:50 38.80053 -122.14477 26760 ft 423 kts
2026-05-04 19:50 38.82968 -122.14678 26994 ft 425 kts
2026-05-04 19:50 38.85925 -122.14882 27312 ft 426 kts
2026-05-04 19:51 38.88894 -122.15088 27586 ft 428 kts
2026-05-04 19:51 38.91880 -122.15294 27837 ft 431 kts
2026-05-04 19:51 38.94881 -122.15501 28092 ft 433 kts
2026-05-04 19:51 38.97900 -122.15711 28348 ft 434 kts
2026-05-04 19:52 39.00923 -122.15921 28622 ft 436 kts
2026-05-04 19:52 39.03913 -122.16128 28900 ft 437 kts
2026-05-04 19:52 39.06956 -122.16340 29164 ft 438 kts
2026-05-04 19:52 39.10008 -122.16552 29416 ft 439 kts
2026-05-04 19:53 39.13061 -122.16765 29673 ft 440 kts
2026-05-04 19:53 39.16133 -122.16979 29915 ft 441 kts
2026-05-04 19:53 39.19189 -122.17192 30222 ft 439 kts
2026-05-04 19:53 39.22238 -122.17407 30533 ft 437 kts
2026-05-04 19:54 39.25273 -122.17620 30802 ft 436 kts
2026-05-04 19:54 39.28303 -122.17832 31024 ft 436 kts
2026-05-04 19:54 39.31333 -122.18043 31257 ft 435 kts
2026-05-04 19:54 39.34356 -122.18255 31510 ft 434 kts
2026-05-04 19:55 39.37343 -122.18464 31747 ft 434 kts
2026-05-04 19:55 39.40357 -122.18676 31966 ft 433 kts
2026-05-04 19:55 39.43372 -122.18887 32174 ft 433 kts
2026-05-04 19:55 39.46385 -122.19098 32377 ft 433 kts
2026-05-04 19:56 39.49392 -122.19308 32579 ft 432 kts
2026-05-04 19:56 39.52398 -122.19519 32777 ft 432 kts
2026-05-04 19:56 39.55398 -122.19731 32980 ft 431 kts
2026-05-04 19:56 39.58403 -122.19942 33155 ft 431 kts
2026-05-04 19:57 39.61366 -122.20151 33327 ft 431 kts
2026-05-04 19:57 39.64365 -122.20363 33517 ft 431 kts
2026-05-04 19:57 39.67357 -122.20574 33707 ft 430 kts
2026-05-04 19:57 39.70347 -122.20786 33878 ft 430 kts
2026-05-04 19:58 39.73339 -122.20998 34010 ft 430 kts
2026-05-04 19:58 39.79316 -122.21421 34031 ft 430 kts
2026-05-04 19:59 39.85291 -122.21846 34038 ft 429 kts
2026-05-04 19:59 39.91233 -122.22269 34036 ft 429 kts
2026-05-04 20:00 39.97194 -122.22693 34035 ft 428 kts
2026-05-04 20:00 40.03149 -122.23118 34035 ft 427 kts
2026-05-04 20:01 40.09043 -122.23504 34034 ft 424 kts
2026-05-04 20:01 40.14787 -122.22538 34037 ft 414 kts 17°
2026-05-04 20:02 40.20459 -122.21110 34034 ft 413 kts 17°
2026-05-04 20:02 40.26115 -122.19717 34035 ft 413 kts 17°
2026-05-04 20:03 40.31777 -122.18344 34026 ft 413 kts 17°
2026-05-04 20:03 40.37407 -122.16985 34010 ft 413 kts 17°
2026-05-04 20:04 40.42101 -122.15850 34019 ft 412 kts 17°
2026-05-04 20:04 40.47748 -122.14483 34009 ft 412 kts 17°
2026-05-04 20:05 40.53400 -122.13112 34003 ft 413 kts 17°
2026-05-04 20:05 40.59053 -122.11738 34010 ft 413 kts 16°
2026-05-04 20:06 40.64689 -122.10365 34011 ft 413 kts 16°
2026-05-04 20:06 40.70355 -122.08983 34012 ft 414 kts 16°
2026-05-04 20:07 40.76040 -122.07595 34012 ft 415 kts 16°
2026-05-04 20:07 40.81695 -122.06211 33994 ft 415 kts 16°
2026-05-04 20:08 40.87377 -122.04819 34024 ft 415 kts 16°
2026-05-04 20:08 40.93069 -122.03421 34002 ft 415 kts 16°
2026-05-04 20:09 40.98716 -122.02033 33988 ft 415 kts 16°
2026-05-04 20:09 41.04405 -122.00632 33974 ft 415 kts 16°
2026-05-04 20:10 41.10075 -121.99232 33981 ft 414 kts 16°
2026-05-04 20:10 41.15751 -121.97828 33973 ft 413 kts 16°
2026-05-04 20:11 41.21373 -121.96436 33968 ft 413 kts 16°
2026-05-04 20:11 41.27029 -121.95032 33946 ft 412 kts 16°
2026-05-04 20:12 41.32663 -121.93632 33942 ft 411 kts 16°
2026-05-04 20:12 41.38255 -121.92240 33930 ft 411 kts 16°
2026-05-04 20:13 41.43877 -121.90838 33932 ft 410 kts 16°
2026-05-04 20:13 41.49508 -121.89430 33923 ft 411 kts 16°
2026-05-04 20:14 41.55134 -121.88022 33915 ft 411 kts 16°
2026-05-04 20:14 41.60725 -121.86620 33906 ft 411 kts 16°
2026-05-04 20:15 41.66359 -121.85204 33902 ft 411 kts 16°
2026-05-04 20:15 41.71970 -121.83792 33891 ft 412 kts 16°
2026-05-04 20:16 41.77611 -121.82370 33877 ft 412 kts 16°
2026-05-04 20:16 41.83246 -121.80947 33875 ft 411 kts 17°
2026-05-04 20:17 41.88839 -121.79531 33882 ft 411 kts 17°
2026-05-04 20:17 41.94456 -121.78108 33895 ft 410 kts 17°
2026-05-04 20:18 42.00069 -121.76683 33916 ft 409 kts 17°
2026-05-04 20:18 42.05670 -121.75257 33936 ft 409 kts 17°
2026-05-04 20:19 42.11261 -121.73832 33935 ft 408 kts 17°
2026-05-04 20:19 42.16892 -121.73001 33935 ft 421 kts 359°
2026-05-04 20:20 42.22707 -121.74386 33944 ft 425 kts 357°
2026-05-04 20:20 42.28546 -121.75775 33936 ft 426 kts 357°
2026-05-04 20:21 42.34404 -121.77125 33912 ft 426 kts 358°
2026-05-04 20:21 42.43168 -121.79118 33864 ft 428 kts 357°
2026-05-04 20:22 42.49038 -121.80456 33841 ft 427 kts 357°
2026-05-04 20:22 42.54907 -121.81796 33851 ft 427 kts 357°
2026-05-04 20:23 42.60769 -121.83138 33853 ft 427 kts 357°
2026-05-04 20:23 42.66604 -121.84476 33848 ft 427 kts 357°
2026-05-04 20:24 42.72466 -121.85823 33858 ft 427 kts 357°
2026-05-04 20:24 42.78332 -121.87173 33860 ft 427 kts 356°
2026-05-04 20:25 42.84198 -121.88526 33864 ft 427 kts 356°
2026-05-04 20:25 42.90062 -121.89881 33867 ft 427 kts 356°
2026-05-04 20:26 42.95878 -121.91228 33884 ft 426 kts 356°
2026-05-04 20:26 43.01729 -121.92585 33882 ft 427 kts 356°
2026-05-04 20:27 43.07584 -121.93946 33883 ft 427 kts 356°
2026-05-04 20:27 43.13445 -121.95311 33894 ft 427 kts 356°
2026-05-04 20:28 43.19308 -121.96679 33896 ft 427 kts 356°
2026-05-04 20:28 43.25173 -121.98050 33896 ft 427 kts 356°
2026-05-04 20:29 43.31008 -121.99418 33880 ft 427 kts 356°
2026-05-04 20:29 43.36864 -122.00792 33907 ft 427 kts 356°
2026-05-04 20:30 43.42724 -122.02172 33915 ft 426 kts 356°
2026-05-04 20:30 43.48547 -122.03547 33910 ft 426 kts 356°
2026-05-04 20:31 43.54399 -122.04932 33925 ft 425 kts 356°
2026-05-04 20:31 43.60200 -122.06306 33926 ft 425 kts 356°
2026-05-04 20:32 43.66029 -122.07690 33941 ft 424 kts 356°
2026-05-04 20:32 43.71853 -122.09076 33930 ft 425 kts 356°
2026-05-04 20:33 43.77640 -122.10456 33943 ft 424 kts 356°
2026-05-04 20:33 43.83457 -122.11845 33955 ft 424 kts 355°
2026-05-04 20:34 43.89270 -122.13236 33959 ft 423 kts 356°
2026-05-04 20:34 43.95092 -122.14631 33938 ft 423 kts 355°
2026-05-04 20:35 44.00854 -122.16018 33972 ft 423 kts 355°
2026-05-04 20:35 44.06648 -122.17413 33959 ft 422 kts 355°
2026-05-04 20:36 44.12437 -122.18810 33965 ft 422 kts 355°
2026-05-04 20:36 44.18238 -122.20211 33969 ft 424 kts 355°
2026-05-04 20:37 44.24063 -122.21620 33967 ft 424 kts 355°
2026-05-04 20:37 44.29851 -122.23025 33973 ft 425 kts 355°
2026-05-04 20:38 44.35696 -122.24447 33969 ft 426 kts 355°
2026-05-04 20:38 44.41553 -122.25874 33963 ft 427 kts 355°
2026-05-04 20:39 44.47397 -122.27302 33959 ft 425 kts 355°
2026-05-04 20:39 44.53215 -122.28727 33953 ft 424 kts 355°
2026-05-04 20:40 44.58983 -122.30141 33956 ft 422 kts 354°
2026-05-04 20:40 44.64763 -122.31562 33963 ft 420 kts 354°
2026-05-04 20:41 44.70499 -122.32973 33969 ft 418 kts 354°
2026-05-04 20:41 44.76234 -122.34388 33975 ft 419 kts 354°
2026-05-04 20:42 44.81987 -122.35808 33979 ft 420 kts 354°
2026-05-04 20:42 44.87724 -122.37229 33988 ft 423 kts 354°
2026-05-04 20:43 44.93541 -122.38672 34000 ft 424 kts 354°
2026-05-04 20:43 44.99352 -122.40117 33987 ft 424 kts 354°
2026-05-04 20:44 45.05123 -122.41557 34000 ft 423 kts 354°
2026-05-04 20:44 45.10909 -122.43002 34000 ft 421 kts 354°
2026-05-04 20:45 45.16677 -122.44446 34006 ft 420 kts 354°
2026-05-04 20:45 45.22389 -122.45878 34003 ft 418 kts 354°
2026-05-04 20:46 45.28119 -122.47317 34005 ft 417 kts 354°
2026-05-04 20:46 45.33832 -122.48755 34012 ft 416 kts 354°
2026-05-04 20:47 45.39551 -122.50197 33995 ft 416 kts 354°
2026-05-04 20:47 45.45257 -122.51640 33992 ft 416 kts 354°
2026-05-04 20:48 45.50935 -122.53079 34002 ft 417 kts 354°
2026-05-04 20:48 45.56651 -122.54529 34001 ft 417 kts 353°
2026-05-04 20:49 45.62375 -122.55986 34000 ft 417 kts 353°
2026-05-04 20:49 45.68054 -122.57434 34007 ft 417 kts 353°
2026-05-04 20:50 45.73774 -122.58895 34007 ft 417 kts 353°
2026-05-04 20:50 45.79494 -122.60329 34004 ft 416 kts 354°
2026-05-04 20:51 45.85209 -122.61732 33975 ft 416 kts 354°
2026-05-04 20:51 45.90915 -122.63140 33988 ft 415 kts 354°
2026-05-04 20:52 45.96610 -122.64553 33935 ft 416 kts 354°
2026-05-04 20:52 45.99445 -122.65256 33627 ft 419 kts 353°
2026-05-04 20:52 46.02318 -122.65972 33367 ft 418 kts 353°
2026-05-04 20:53 46.05184 -122.66686 33101 ft 418 kts 353°
2026-05-04 20:53 46.08049 -122.67401 32841 ft 419 kts 353°
2026-05-04 20:53 46.10927 -122.68101 32576 ft 419 kts 354°
2026-05-04 20:53 46.13814 -122.68700 31924 ft 416 kts 355°
2026-05-04 20:54 46.16666 -122.69236 31381 ft 409 kts 355°
2026-05-04 20:54 46.19468 -122.69759 30822 ft 404 kts 354°
2026-05-04 20:54 46.21305 -122.70107 30445 ft 401 kts 354°
2026-05-04 20:54 46.24058 -122.70640 29899 ft 399 kts 354°
2026-05-04 20:55 46.27727 -122.71364 29084 ft 403 kts 354°
2026-05-04 20:55 46.30501 -122.71915 28492 ft 401 kts 353°
2026-05-04 20:55 46.32364 -122.72276 28103 ft 396 kts 355°
2026-05-04 20:55 46.35056 -122.72563 27551 ft 390 kts 359°
2026-05-04 20:56 46.37746 -122.72649 27010 ft 384 kts
2026-05-04 20:56 46.40413 -122.72676 26482 ft 380 kts
2026-05-04 20:56 46.43046 -122.72705 25951 ft 378 kts
2026-05-04 20:56 46.45678 -122.72752 25440 ft 380 kts 360°
2026-05-04 20:57 46.48333 -122.72819 24910 ft 381 kts 360°
2026-05-04 20:57 46.50978 -122.72903 24362 ft 378 kts 359°
2026-05-04 20:57 46.53597 -122.72994 23834 ft 374 kts 359°
2026-05-04 20:57 46.56152 -122.73085 23277 ft 370 kts 359°
2026-05-04 20:58 46.58715 -122.73178 22706 ft 366 kts 359°
2026-05-04 20:58 46.61253 -122.73271 22172 ft 362 kts 359°
2026-05-04 20:58 46.63755 -122.73362 21662 ft 358 kts 359°
2026-05-04 20:58 46.66241 -122.73453 21173 ft 357 kts 359°
2026-05-04 20:59 46.68724 -122.73542 20690 ft 359 kts 359°
2026-05-04 20:59 46.71236 -122.73634 20195 ft 360 kts 359°
2026-05-04 20:59 46.73731 -122.73724 19694 ft 356 kts 359°
2026-05-04 20:59 46.76196 -122.73801 19205 ft 352 kts
2026-05-04 21:00 46.78586 -122.73158 18710 ft 350 kts 20°
2026-05-04 21:00 46.80696 -122.71413 18213 ft 350 kts 36°
2026-05-04 21:00 46.82567 -122.69141 17700 ft 349 kts 38°
2026-05-04 21:00 46.84434 -122.66871 17210 ft 349 kts 38°
2026-05-04 21:01 46.86302 -122.64676 16732 ft 347 kts 36°
2026-05-04 21:01 46.88199 -122.62531 16254 ft 343 kts 36°
2026-05-04 21:01 46.90081 -122.60407 15787 ft 339 kts 36°
2026-05-04 21:01 46.91935 -122.58303 15324 ft 336 kts 36°
2026-05-04 21:02 46.93815 -122.56286 14871 ft 334 kts 29°
2026-05-04 21:02 46.95978 -122.55136 14441 ft 330 kts 13°
2026-05-04 21:02 46.98205 -122.54273 13969 ft 331 kts 15°
2026-05-04 21:02 47.00416 -122.53325 13489 ft 330 kts 16°
2026-05-04 21:03 47.02581 -122.52373 12985 ft 327 kts 16°
2026-05-04 21:03 47.04748 -122.51421 12525 ft 323 kts 16°
2026-05-04 21:03 47.06885 -122.50484 12081 ft 319 kts 16°
2026-05-04 21:03 47.09026 -122.49670 11637 ft 317 kts
2026-05-04 21:04 47.11209 -122.49271 11217 ft 316 kts
2026-05-04 21:04 47.13406 -122.48959 10777 ft 315 kts
2026-05-04 21:04 47.15573 -122.48616 10513 ft 308 kts
2026-05-04 21:04 47.17669 -122.48252 10361 ft 299 kts
2026-05-04 21:05 47.19669 -122.47897 10221 ft 287 kts
2026-05-04 21:05 47.21624 -122.47593 10090 ft 277 kts
2026-05-04 21:05 47.23511 -122.47312 10003 ft 268 kts
2026-05-04 21:05 47.25357 -122.47035 9682 ft 265 kts
2026-05-04 21:06 47.27182 -122.46759 9353 ft 263 kts
2026-05-04 21:06 47.28998 -122.46486 9036 ft 261 kts
2026-05-04 21:06 47.30799 -122.46211 8722 ft 260 kts
2026-05-04 21:06 47.32606 -122.45934 8417 ft 260 kts
2026-05-04 21:07 47.34384 -122.45661 8094 ft 259 kts
2026-05-04 21:07 47.36172 -122.45459 7788 ft 257 kts
2026-05-04 21:07 47.37956 -122.45456 7482 ft 257 kts 359°
2026-05-04 21:07 47.39745 -122.45484 7165 ft 255 kts 359°
2026-05-04 21:08 47.41516 -122.45505 6856 ft 253 kts 360°
2026-05-04 21:08 47.43270 -122.45512 6571 ft 252 kts
2026-05-04 21:08 47.45023 -122.45530 6407 ft 250 kts 359°
2026-05-04 21:08 47.46735 -122.45540 6272 ft 241 kts
2026-05-04 21:09 47.48383 -122.45540 6138 ft 233 kts 359°
2026-05-04 21:09 47.49959 -122.45542 6036 ft 226 kts 360°
2026-05-04 21:09 47.51519 -122.45547 5783 ft 223 kts 359°
2026-05-04 21:09 47.53067 -122.45582 5450 ft 223 kts 358°
2026-05-04 21:10 47.54611 -122.45630 5162 ft 220 kts 358°
2026-05-04 21:10 47.56138 -122.45689 4866 ft 219 kts 357°
2026-05-04 21:10 47.57665 -122.45753 4493 ft 220 kts 357°
2026-05-04 21:10 47.59207 -122.45840 4082 ft 224 kts 356°
2026-05-04 21:11 47.60770 -122.45950 3751 ft 224 kts 355°
2026-05-04 21:11 47.62294 -122.45978 3469 ft 222 kts
2026-05-04 21:11 47.63683 -122.45012 3260 ft 224 kts 42°
2026-05-04 21:11 47.64474 -122.43047 3201 ft 228 kts 77°
2026-05-04 21:12 47.64534 -122.40655 3253 ft 238 kts 93°
2026-05-04 21:12 47.64391 -122.38139 3156 ft 247 kts 95°
2026-05-04 21:12 47.64228 -122.35640 3087 ft 240 kts 98°
2026-05-04 21:12 47.63654 -122.33503 3174 ft 215 kts 133°
2026-05-04 21:13 47.62396 -122.32453 3205 ft 210 kts 167°
2026-05-04 21:13 47.60962 -122.32001 3132 ft 210 kts 174°
2026-05-04 21:13 47.59555 -122.31755 3011 ft 197 kts 177°
2026-05-04 21:13 47.58183 -122.31701 2710 ft 193 kts 182°
2026-05-04 21:14 47.56867 -122.31706 2447 ft 186 kts 180°
2026-05-04 21:14 47.55597 -122.31703 2252 ft 184 kts 183°
2026-05-04 21:14 47.54339 -122.31706 2030 ft 180 kts 183°
2026-05-04 21:14 47.53092 -122.31703 1775 ft 174 kts 183°
2026-05-04 21:15 47.51909 -122.31723 1546 ft 164 kts 181°
2026-05-04 21:15 47.50782 -122.31734 1324 ft 160 kts 184°
2026-05-04 21:15 47.49709 -122.31757 1138 ft 150 kts 184°
2026-05-04 21:15 47.48670 -122.31756 899 ft 146 kts 183°
2026-05-04 21:16 47.47653 -122.31775 718 ft 146 kts 181°
2026-05-04 21:16 47.46649 -122.31783 508 ft 142 kts 181°
2026-05-04 21:16 47.45690 -122.31795 409 ft 122 kts 180°
2026-05-04 21:16 47.45060 -122.31799 392 ft 61 kts 180°
2026-05-04 21:17 47.44793 -122.31801 388 ft 31 kts 178°
2026-05-04 21:17 47.44584 -122.31736 379 ft 30 kts 157°
2026-05-04 21:17 47.44403 -122.31587 374 ft 29 kts 149°
2026-05-04 21:17 47.44260 -122.31426 377 ft 24 kts 122°
2026-05-04 21:18 47.44206 -122.31203 382 ft 23 kts 114°
2026-05-04 21:18 47.44096 -122.31045 381 ft 22 kts 150°
2026-05-04 21:18 47.43967 -122.30932 378 ft 21 kts 149°
2026-05-04 21:18 47.43901 -122.30781 379 ft 17 kts 92°
2026-05-04 21:19 47.43930 -122.30646 380 ft 14 kts 27°
2026-05-04 21:19 47.44025 -122.30636 383 ft 13 kts
2026-05-04 21:19 47.44116 -122.30635 385 ft 13 kts 359°
2026-05-04 21:19 47.44204 -122.30635 387 ft 13 kts
2026-05-04 21:20 47.44292 -122.30633 390 ft 13 kts
2026-05-04 21:20 47.44401 -122.30632 394 ft 18 kts
2026-05-04 21:20 47.44542 -122.30631 396 ft 22 kts 360°
2026-05-04 21:20 47.44690 -122.30629 400 ft 20 kts 360°
2026-05-04 21:21 47.44821 -122.30628 405 ft 18 kts
2026-05-04 21:21 47.44946 -122.30628 409 ft 18 kts 360°
2026-05-04 21:21 47.45033 -122.30617 409 ft 10 kts 38°
2026-05-04 21:21 47.45045 -122.30519 413 ft 10 kts 90°
2026-05-04 21:22 47.45044 -122.30418 413 ft 10 kts 92°
2026-05-04 21:22 47.45041 -122.30311 412 ft 10 kts 95°
2026-05-04 21:22 47.45013 -122.30234 411 ft 8 kts 131°
2026-05-04 21:22 47.44975 -122.30168 410 ft 2 kts 130°
2026-05-04 21:23 47.44960 -122.30150 406 ft 4 kts 171°
2026-05-04 21:23 47.44930 -122.30178 409 ft 6 kts 219°
2026-05-04 21:23 47.44917 -122.30195 408 ft 1 kts 220°
2026-05-04 21:23 47.44914 -122.30198 408 ft 1 kts 220°
2026-05-04 21:24 47.44913 -122.30200 408 ft 0 kts 220°